When you browse on this site, cookies collect data to enhance your experience and personalize the content and advertising you see.
Visit our Privacy Policy to learn more. By continuing to use the site, you agree to this use of cookies and data.
  • In Germany
  • List of Countries
  • For 7 days
  • Water Temperature
  • Weather Map
  • Weather Widgets
  • user-avatar
    Login

    Hourly Weather Poldnevaya

    Today, 14 October, Monday

    Time Temperature Precipitation Wind Pressure Humidity
    00:00 +6°C° 0.3 mm 4 mps 717 mmHg 89%
    01:00 +6°C° 0.3 mm 4 mps 717 mmHg 89%
    02:00 +6°C° 0.2 mm 4 mps 717 mmHg 89%
    03:00 +5°C° 0.2 mm 3 mps 717 mmHg 90%
    04:00 +5°C° 0.2 mm 3 mps 717 mmHg 90%
    05:00 +5°C° 0.1 mm 4 mps 717 mmHg 89%
    06:00 +5°C° 0.1 mm 4 mps 717 mmHg 89%
    07:00 +4°C° 0.1 mm 4 mps 716 mmHg 88%
    08:00 +4°C° 0.2 mm 4 mps 717 mmHg 88%
    09:00 +4°C° 0.2 mm 4 mps 717 mmHg 88%
    10:00 +5°C° 0.2 mm 5 mps 717 mmHg 88%
    11:00 +5°C° 0.1 mm 5 mps 717 mmHg 86%
    12:00 +5°C° 0.1 mm 5 mps 717 mmHg 85%
    13:00 +5°C° 0.1 mm 5 mps 717 mmHg 83%
    14:00 +5°C° 0.1 mm 5 mps 718 mmHg 84%
    15:00 +5°C° 0.1 mm 5 mps 718 mmHg 85%
    16:00 +3°C° 0.1 mm 5 mps 718 mmHg 86%
    17:00 +3°C° 0.2 mm 5 mps 719 mmHg 87%
    18:00 +3°C° 0.2 mm 5 mps 719 mmHg 87%
    19:00 +3°C° 0.2 mm 5 mps 719 mmHg 88%
    20:00 +2°C° 0.1 mm 5 mps 719 mmHg 87%
    21:00 +2°C° 0.1 mm 5 mps 720 mmHg 86%
    22:00 +2°C° 0.1 mm 5 mps 720 mmHg 85%
    23:00 +2°C° 0.1 mm 5 mps 720 mmHg 85%

    Tomorrow, 15 October, Tuesday

    Time Temperature Precipitation Wind Pressure Humidity
    00:00 +2°C° 0.1 mm 5 mps 720 mmHg 85%
    01:00 +2°C° 0.1 mm 5 mps 720 mmHg 84%
    02:00 +2°C° 0 mm 5 mps 721 mmHg 84%
    03:00 +2°C° 0 mm 5 mps 721 mmHg 84%
    04:00 +2°C° 0 mm 5 mps 721 mmHg 84%
    05:00 +1°C° 0 mm 5 mps 721 mmHg 86%
    06:00 +1°C° 0 mm 4 mps 721 mmHg 87%
    07:00 +1°C° 0 mm 4 mps 721 mmHg 88%
    08:00 +1°C° 0 mm 4 mps 721 mmHg 86%
    09:00 +3°C° 0 mm 4 mps 721 mmHg 84%
    10:00 +3°C° 0 mm 3 mps 721 mmHg 81%
    11:00 +3°C° 0 mm 3 mps 721 mmHg 81%
    12:00 +5°C° 0 mm 2 mps 720 mmHg 80%
    13:00 +5°C° 0 mm 2 mps 720 mmHg 79%
    14:00 +5°C° 0.4 mm 2 mps 719 mmHg 84%
    15:00 +5°C° 0.4 mm 1 mps 718 mmHg 90%
    16:00 +5°C° 0.4 mm 1 mps 717 mmHg 95%
    17:00 +4°C° 0.6 mm 1 mps 717 mmHg 95%
    18:00 +3°C° 0.6 mm 2 mps 717 mmHg 96%
    19:00 +3°C° 0.6 mm 2 mps 717 mmHg 96%
    20:00 +3°C° 0.1 mm 2 mps 717 mmHg 96%
    21:00 +2°C° 0.1 mm 3 mps 718 mmHg 95%
    22:00 +2°C° 0.1 mm 3 mps 718 mmHg 95%
    23:00 +2°C° 0 mm 3 mps 719 mmHg 92%

    Day after tomorrow, 16 October, Wednesday

    Time Temperature Precipitation Wind Pressure Humidity
    00:00 0°C° 0 mm 4 mps 719 mmHg 90%
    01:00 0°C° 0 mm 4 mps 720 mmHg 88%
    02:00 0°C° 0 mm 4 mps 720 mmHg 87%
    03:00 0°C° 0 mm 4 mps 721 mmHg 86%
    04:00 -1°C° 0 mm 5 mps 721 mmHg 86%
    05:00 -1°C° 0 mm 5 mps 722 mmHg 86%
    06:00 -1°C° 0 mm 5 mps 722 mmHg 86%
    07:00 -2°C° 0 mm 5 mps 722 mmHg 86%
    08:00 -2°C° 0 mm 5 mps 723 mmHg 83%
    09:00 -1°C° 0 mm 5 mps 723 mmHg 80%
    10:00 -1°C° 0 mm 5 mps 724 mmHg 78%
    11:00 -1°C° 0 mm 5 mps 724 mmHg 78%
    12:00 -1°C° 0 mm 5 mps 725 mmHg 77%
    13:00 -2°C° 0 mm 6 mps 725 mmHg 77%
    14:00 -1°C° 0 mm 5 mps 726 mmHg 78%
    15:00 -1°C° 0 mm 5 mps 726 mmHg 79%
    16:00 -1°C° 0 mm 5 mps 726 mmHg 79%
    17:00 -2°C° 0 mm 5 mps 727 mmHg 81%
    18:00 -2°C° 0 mm 5 mps 727 mmHg 82%
    19:00 -2°C° 0 mm 5 mps 727 mmHg 84%
    20:00 -4°C° 0 mm 5 mps 728 mmHg 84%
    21:00 -4°C° 0 mm 5 mps 728 mmHg 84%
    22:00 -4°C° 0 mm 5 mps 729 mmHg 85%
    23:00 -4°C° 0 mm 5 mps 729 mmHg 84%

    17 October, Thursday

    Time Temperature Precipitation Wind Pressure Humidity
    00:00 -3°C° 0 mm 4 mps 729 mmHg 84%
    01:00 -3°C° 0 mm 4 mps 730 mmHg 83%
    02:00 -3°C° 0 mm 4 mps 730 mmHg 83%
    03:00 -3°C° 0 mm 4 mps 730 mmHg 82%
    04:00 -3°C° 0 mm 4 mps 731 mmHg 82%
    05:00 -3°C° 0 mm 4 mps 731 mmHg 82%
    06:00 -4°C° 0 mm 4 mps 731 mmHg 82%
    07:00 -4°C° 0 mm 4 mps 731 mmHg 82%
    08:00 -3°C° 0 mm 4 mps 731 mmHg 80%
    09:00 -3°C° 0 mm 4 mps 731 mmHg 77%
    10:00 -3°C° 0 mm 4 mps 732 mmHg 75%
    11:00 -2°C° 0 mm 4 mps 732 mmHg 74%
    12:00 -2°C° 0 mm 4 mps 732 mmHg 73%
    13:00 -2°C° 0 mm 4 mps 732 mmHg 72%
    14:00 -2°C° 0 mm 4 mps 732 mmHg 73%
    15:00 -2°C° 0 mm 4 mps 732 mmHg 75%
    16:00 -1°C° 0 mm 3 mps 732 mmHg 76%
    17:00 -1°C° 0.1 mm 3 mps 731 mmHg 82%
    18:00 -2°C° 0.1 mm 2 mps 731 mmHg 87%
    19:00 0°C° 0.1 mm 1 mps 731 mmHg 93%
    20:00 0°C° 0.3 mm 1 mps 731 mmHg 94%
    21:00 0°C° 0.3 mm 1 mps 730 mmHg 95%
    22:00 0°C° 0.3 mm 1 mps 730 mmHg 96%
    23:00 0°C° 0.4 mm 1 mps 730 mmHg 97%

    18 October, Friday

    Time Temperature Precipitation Wind Pressure Humidity
    00:00 0°C° 0.4 mm 1 mps 729 mmHg 97%
    01:00 0°C° 0.4 mm 1 mps 729 mmHg 97%
    02:00 0°C° 0.7 mm 1 mps 728 mmHg 97%
    03:00 0°C° 0.7 mm 1 mps 728 mmHg 97%
    04:00 -2°C° 0.7 mm 2 mps 728 mmHg 97%
    05:00 -2°C° 0.5 mm 2 mps 728 mmHg 97%
    06:00 -2°C° 0.5 mm 2 mps 727 mmHg 97%
    07:00 -2°C° 0.5 mm 3 mps 727 mmHg 97%
    08:00 -2°C° 0.8 mm 3 mps 727 mmHg 96%
    09:00 -3°C° 0.8 mm 4 mps 727 mmHg 96%
    10:00 -3°C° 0.8 mm 4 mps 727 mmHg 95%
    11:00 -3°C° 0.5 mm 4 mps 727 mmHg 95%
    12:00 -3°C° 0.5 mm 4 mps 727 mmHg 94%
    13:00 -4°C° 0.5 mm 5 mps 727 mmHg 94%
    14:00 -4°C° 0.6 mm 5 mps 727 mmHg 94%
    15:00 -4°C° 0.6 mm 5 mps 727 mmHg 95%
    16:00 -4°C° 0.6 mm 5 mps 727 mmHg 96%
    17:00 -5°C° 0.5 mm 5 mps 728 mmHg 95%
    18:00 -5°C° 0.5 mm 5 mps 728 mmHg 94%
    19:00 -6°C° 0.5 mm 5 mps 728 mmHg 94%
    20:00 -6°C° 0.3 mm 5 mps 729 mmHg 93%
    21:00 -8°C° 0.3 mm 6 mps 729 mmHg 92%
    22:00 -8°C° 0.3 mm 6 mps 729 mmHg 92%
    23:00 -8°C° 0.1 mm 5 mps 730 mmHg 91%

    19 October, Saturday

    Time Temperature Precipitation Wind Pressure Humidity
    00:00 -8°C° 0.1 mm 5 mps 730 mmHg 91%
    01:00 -8°C° 0.1 mm 5 mps 730 mmHg 90%
    02:00 -10°C° 0 mm 5 mps 731 mmHg 91%
    03:00 -10°C° 0 mm 5 mps 731 mmHg 91%
    04:00 -11°C° 0 mm 5 mps 732 mmHg 91%
    05:00 -10°C° 0 mm 4 mps 732 mmHg 91%
    06:00 -10°C° 0 mm 4 mps 733 mmHg 91%
    07:00 -11°C° 0 mm 4 mps 733 mmHg 91%
    08:00 -10°C° 0 mm 4 mps 734 mmHg 88%
    09:00 -9°C° 0 mm 4 mps 734 mmHg 85%
    10:00 -8°C° 0 mm 4 mps 735 mmHg 82%
    11:00 -7°C° 0 mm 4 mps 735 mmHg 78%
    12:00 -5°C° 0 mm 3 mps 735 mmHg 75%
    13:00 -4°C° 0 mm 3 mps 735 mmHg 72%
    14:00 -5°C° 0 mm 3 mps 736 mmHg 74%
    15:00 -4°C° 0 mm 2 mps 736 mmHg 77%
    16:00 -4°C° 0 mm 2 mps 736 mmHg 79%
    17:00 -6°C° 0 mm 2 mps 736 mmHg 82%
    18:00 -6°C° 0 mm 1 mps 736 mmHg 84%
    19:00 -7°C° 0 mm 1 mps 736 mmHg 86%
    20:00 -8°C° 0 mm 1 mps 737 mmHg 86%
    21:00 -8°C° 0 mm 1 mps 737 mmHg 86%
    22:00 -8°C° 0 mm 1 mps 737 mmHg 85%
    23:00 -8°C° 0 mm 1 mps 737 mmHg 85%
    Show more